FW2830 Weather Reports


time (UTC)temp
C
wind
direction
speed
KPH
gust
KPH
rain 1hr
cm
rain 24hr
cm
rain mn
cm
humidity
%
barometer
mb
20260508023043 8 214 0.0 4.8 0.00 2.84 2.84 100 1001.4
20260508021546 9 214 0.0 9.7 0.00 2.84 2.84 100 1001.5
20260508020042 9 210 3.2 11.3 0.00 2.84 2.84 100 1001.5
20260508014549 9 210 4.8 12.9 0.00 2.84 2.84 100 1001.5
20260508013044 9 211 6.4 14.5 0.00 2.84 2.84 100 1001.3
20260508011542 10 211 3.2 16.1 0.00 2.84 2.84 100 1001.2
20260508010037 10 222 4.8 17.7 0.00 2.84 2.84 100 1001.4
20260508004536 10 210 8.0 16.1 0.00 2.84 2.84 100 1001.4
20260508003053 10 207 6.4 14.5 0.00 2.84 2.84 100 1001.5
20260508001534 10 215 6.4 12.9 0.00 2.84 2.84 100 1001.6
20260508000034 10 230 8.0 16.1 0.00 2.84 2.84 100 1001.7
20260507234531 10 204 9.7 16.1 0.00 2.84 2.84 100 1001.8
20260507233034 10 197 4.8 16.1 0.00 2.84 2.84 100 1001.5
20260507231530 10 210 6.4 24.1 0.00 2.84 2.84 100 1002.0
20260507230028 10 217 9.7 17.7 0.00 2.84 2.84 100 1001.8
20260507224525 10 208 8.0 25.7 0.00 2.84 2.84 100 1002.0
20260507223022 10 218 4.8 19.3 0.00 2.84 2.84 100 1001.8
20260507221523 10 206 6.4 24.1 0.03 2.84 2.84 100 1002.1
20260507220020 10 250 6.4 16.1 0.05 2.84 2.84 100 1002.3
20260507214519 10 232 6.4 19.3 0.13 2.84 2.84 100 1002.2
20260507213016 10 229 8.0 16.1 0.20 2.84 2.84 100 1002.0
20260507211516 10 204 8.0 17.7 0.43 2.82 2.82 100 1001.7
20260507210012 10 190 4.8 16.1 0.64 2.79 2.79 100 1001.8
20260507204509 10 195 4.8 17.7 0.86 2.72 2.72 100 1002.7
20260507203012 10 198 4.8 12.9 1.14 2.64 2.64 100 1002.9
20260507201504 10 196 1.6 16.1 1.17 2.39 2.39 99 1003.4
20260507200001 10 194 9.7 22.5 1.17 2.13 2.13 99 1003.8
20260507194603 10 191 8.0 20.9 1.12 1.85 1.85 99 1004.2
20260507193057 11 235 6.4 20.9 1.07 1.50 1.50 99 1004.6
20260507191556 11 225 9.7 22.5 0.86 1.22 1.22 98 1004.5
20260507190054 12 233 12.9 27.4 0.64 0.99 0.99 98 1004.6
20260507184553 12 212 11.3 22.5 0.38 0.71 0.71 97 1004.6
20260507183052 12 185 8.0 17.7 0.08 0.43 0.43 96 1004.8
20260507181551 12 183 9.7 29.0 0.03 0.36 0.36 94 1004.6
20260507180053 13 168 11.3 29.0 0.00 0.33 0.33 92 1004.4
20260507174550 13 195 12.9 27.4 0.00 0.33 0.33 92 1004.5
20260507173048 13 218 11.3 27.4 0.00 0.33 0.33 93 1004.6
20260507171545 13 189 8.0 16.1 0.00 0.33 0.33 93 1005.1
20260507170043 13 196 11.3 25.7 0.00 0.33 0.33 92 1005.4
20260507164540 13 175 16.1 35.4 0.00 0.33 0.33 92 1005.8
20260507163039 13 175 12.9 45.1 0.00 0.33 0.33 92 1005.9
20260507161535 13 180 14.5 25.7 0.00 0.33 0.33 92 1006.5
20260507160038 13 137 12.9 35.4 0.00 0.33 0.33 92 1006.9
20260507154532 13 204 16.1 33.8 0.00 0.33 0.33 92 1007.3
20260507153034 13 156 16.1 40.2 0.00 0.33 0.33 92 1007.5
20260507151528 13 217 16.1 38.6 0.00 0.33 0.33 93 1007.9
20260507150028 13 197 12.9 40.2 0.00 0.33 0.33 94 1007.8
20260507144522 13 192 16.1 41.8 0.00 0.33 0.33 96 1008.2
20260507143023 12 190 9.7 33.8 0.00 0.33 0.33 97 1008.6
20260507141516 12 220 12.9 38.6 0.00 0.33 0.33 97 1009.3
20260507140025 12 222 12.9 30.6 0.00 0.33 0.33 97 1009.2
20260507134515 12 211 14.5 32.2 0.00 0.33 0.33 97 1009.3
20260507133014 13 201 12.9 32.2 0.00 0.33 0.33 98 1009.8
20260507131513 13 204 17.7 37.0 0.00 0.33 0.33 99 1009.8
20260507130012 12 222 11.3 27.4 0.00 0.33 0.33 99 1009.4
20260507124514 12 204 11.3 27.4 0.03 0.33 0.33 100 1009.2
20260507123006 12 204 16.1 43.5 0.03 0.33 0.33 100 1009.8
20260507121503 12 220 11.3 25.7 0.03 0.33 0.33 100 1010.0
20260507120100 11 208 9.7 35.4 0.03 0.33 0.33 100 1010.7
20260507114558 11 210 6.4 17.7 0.00 0.33 0.33 100 1011.2
20260507113058 11 238 12.9 20.9 0.03 0.33 0.33 100 1011.3
20260507111555 11 235 12.9 37.0 0.03 0.33 0.33 100 1011.8
20260507110056 11 247 9.7 20.9 0.03 0.33 0.33 100 1011.4
20260507104554 11 210 9.7 22.5 0.03 0.33 0.33 100 1011.7
20260507103051 11 220 9.7 17.7 0.05 0.30 0.30 100 1012.1
20260507101602 11 233 9.7 32.2 0.10 0.30 0.30 100 1012.0
20260507100047 11 185 9.7 16.1 0.10 0.30 0.30 100 1011.4
20260507094555 11 214 8.0 17.7 0.15 0.30 0.30 100 1012.0
20260507093043 11 214 11.3 20.9 0.05 0.20 0.20 100 1012.7
20260507091555 11 193 4.8 14.5 0.10 0.20 0.20 100 1012.3
20260507090100 10 217 9.7 25.7 0.15 0.20 0.20 100 1012.3
20260507084538 10 208 6.4 12.9 0.15 0.15 0.15 100 1012.4
20260507083041 10 212 3.2 11.3 0.15 0.15 0.15 100 1012.3
20260507081549 10 212 3.2 11.3 0.10 0.10 0.10 99 1012.7
20260507080035 11 212 4.8 16.1 0.05 0.05 0.05 99 1012.6
20260507074538 11 233 9.7 22.5 0.00 0.00 0.00 100 1013.2
20260507073031 11 224 9.7 16.1 0.00 0.00 0.00 100 1013.4
20260507071529 11 192 6.4 22.5 0.00 0.00 0.00 100 1013.5
20260507070027 11 214 8.0 20.9 0.00 0.00 0.00 100 1013.6
20260507064526 10 235 4.8 12.9 0.00 0.00 0.00 99 1013.5
20260507063023 10 208 4.8 14.5 0.00 0.00 0.00 99 1013.9
20260507061530 10 206 3.2 12.9 0.00 0.00 0.00 99 1014.0
20260507060028 10 210 6.4 14.5 0.00 0.00 0.00 98 1014.3
20260507054520 11 196 6.4 20.9 0.00 0.00 0.00 99 1014.5
20260507053017 11 209 6.4 16.1 0.00 0.00 0.00 98 1014.5
20260507051515 11 219 8.0 22.5 0.00 0.00 0.00 98 1014.9
20260507050110 11 231 9.7 24.1 0.00 0.00 0.00 97 1015.3
20260507044517 11 221 9.7 24.1 0.00 0.00 0.00 97 1015.5
20260507043004 11 222 8.0 20.9 0.00 0.00 0.00 97 1015.8
20260507041501 11 219 9.7 22.5 0.00 0.00 0.00 97 1016.1
20260507040100 11 226 9.7 25.7 0.00 0.00 0.00 96 1016.2
20260507034602 11 213 8.0 20.9 0.00 0.00 0.00 96 1016.4
20260507033053 11 219 11.3 27.4 0.00 0.00 0.00 96 1016.8
20260507031551 11 222 12.9 24.1 0.00 0.00 0.00 96 1016.8
20260507030052 11 206 11.3 27.4 0.00 0.00 0.00 96 1016.8
20260507024546 11 216 9.7 25.7 0.00 0.00 0.00 95 1016.9